Theta_e
318 320 320 319 318 319 320 322 321 320 323 326 327 328 329 328 328 329 329 329 330 331 332 333 334 333 332 331 329 328 327 323 321 323 323 320 321 323 320 319 321 319 319 320 322 323 323 324 325 325 325 327 328 327 325 320 318 321 323 323 322 324 324 324 324 321 319 319 317 318 321 323 323 322 320 321 321 323 324 324 327 328 327 330 329 332 338 336
318 319 319 318 317 318 319 320 321 321 323 325 327 327 328 329 328 329 328 328 329 330 330 330 331 332 330 329 328 327 324 323 324 324 323 321 321 321 319 319 321 320 320 322 322 322 324 325 324 325 325 328 328 327 327 322 319 322 324 324 324 325 322 320 320 318 318 318 317 316 318 322 324 322 321 321 322 323 324 323 326 327 326 330 329 332 338 336
318 318 318 317 317 317 319 320 320 321 323 323 325 327 327 328 329 328 327 327 328 329 328 328 329 330 328 327 328 326 322 323 325 324 323 321 319 321 321 320 321 320 320 323 322 321 323 324 324 325 326 329 328 328 328 324 323 323 322 325 326 323 320 318 317 316 315 315 316 317 316 319 322 322 321 321 323 322 323 323 325 326 326 329 328 333 338 336
317 318 317 317 317 317 317 318 318 320 322 321 322 326 327 327 329 329 327 326 327 329 328 328 328 327 327 326 326 323 321 324 324 324 324 320 318 321 322 322 321 320 321 324 324 323 323 324 325 324 326 329 328 328 329 325 325 324 323 327 324 319 319 317 316 314 313 313 314 316 315 317 319 320 321 321 323 322 323 322 324 325 325 329 329 333 338 336
317 317 317 316 317 317 316 316 317 318 320 320 319 323 326 326 327 329 329 328 329 329 329 328 326 325 325 325 324 321 322 329 327 323 323 320 319 322 322 322 321 320 322 324 324 324 324 325 325 324 327 329 330 330 329 326 324 324 325 324 319 317 318 315 314 312 312 312 313 315 316 316 316 317 319 320 322 322 322 320 322 322 322 330 330 333 337 336
316 317 317 316 317 317 316 315 317 317 318 320 319 319 324 326 326 328 330 330 329 329 329 328 327 326 324 323 322 321 326 332 327 322 323 320 320 322 322 322 321 322 324 324 323 324 324 325 326 328 329 331 332 332 331 325 323 327 327 322 318 315 314 313 313 311 311 313 313 315 315 315 315 316 317 318 320 320 320 319 319 320 322 331 333 333 336 336
316 316 316 316 317 317 317 316 317 318 317 318 320 320 323 325 326 328 329 330 329 328 328 328 328 325 322 322 323 322 326 328 322 321 323 320 320 321 321 321 321 322 324 324 323 324 325 326 328 329 331 332 332 332 331 324 322 329 329 322 318 314 312 313 314 312 311 313 313 314 313 314 315 316 317 317 318 318 320 319 319 320 324 331 332 333 335 336
315 315 316 315 315 317 317 316 316 317 318 318 320 322 324 324 325 327 328 330 329 329 329 328 328 324 321 322 323 323 325 326 321 320 321 320 319 319 320 320 320 322 324 324 323 325 325 327 329 329 332 333 333 332 329 327 326 328 329 322 316 314 312 313 315 314 312 314 314 313 313 314 315 315 315 316 316 316 319 320 319 321 327 331 331 332 334 336
315 314 315 315 314 316 317 317 316 316 317 318 319 321 323 323 323 325 326 329 329 329 329 328 327 322 321 323 323 325 326 324 321 319 321 321 319 318 319 319 319 321 324 324 323 325 325 327 328 329 332 332 332 332 329 330 329 328 329 321 315 315 314 315 316 314 315 316 316 315 315 315 314 314 314 315 316 316 318 320 319 320 325 328 329 330 332 335
314 314 315 315 313 315 316 317 317 316 316 317 317 319 321 323 323 323 325 327 328 329 328 328 327 321 321 324 324 327 327 323 321 321 322 322 320 320 320 320 320 322 324 324 323 325 325 326 328 328 330 331 331 331 329 330 329 327 325 319 317 317 315 316 317 316 318 318 316 316 317 316 314 313 316 316 316 317 318 319 320 320 323 325 327 330 332 334
313 314 314 315 314 314 315 317 317 317 316 316 316 317 320 322 323 323 324 325 327 329 328 328 326 321 321 324 325 327 325 324 323 322 323 322 321 322 321 321 321 322 324 324 323 324 325 327 328 328 329 330 329 330 329 327 326 325 323 321 320 319 317 318 318 318 319 318 316 315 316 317 315 312 315 317 316 317 318 319 322 321 321 323 325 329 332 333
313 313 313 314 314 313 314 316 317 317 317 316 316 316 319 322 322 322 323 324 326 328 327 327 325 322 322 325 326 325 324 325 323 322 323 322 322 322 322 322 321 322 324 325 325 324 326 326 328 329 328 329 329 330 329 326 325 324 324 327 326 324 324 323 321 321 321 319 315 316 321 323 320 314 314 316 316 317 318 319 322 321 321 323 324 327 331 333
312 312 313 314 314 313 313 315 315 316 316 316 316 316 318 321 322 322 322 323 324 326 327 326 325 322 323 326 324 322 323 325 323 321 323 322 322 322 321 322 322 322 323 325 326 325 326 327 328 327 327 329 329 328 327 325 325 325 326 329 330 329 329 328 326 324 324 321 315 319 327 330 326 317 315 317 317 317 318 319 321 322 321 323 325 327 330 333
311 312 312 313 314 313 312 313 314 315 315 316 316 316 318 320 321 321 321 322 322 325 326 326 325 323 324 324 320 320 323 325 324 322 323 322 321 322 321 322 322 323 324 325 326 326 327 327 327 326 326 327 326 324 325 325 325 328 328 328 331 332 330 328 327 327 327 321 317 323 328 331 328 319 315 316 317 317 317 318 319 321 322 324 326 328 329 331
311 312 312 312 313 313 312 312 313 314 314 315 316 316 316 318 321 322 322 321 321 323 325 325 324 322 324 323 319 319 321 323 324 322 322 322 322 322 322 323 323 323 325 326 326 326 327 326 326 326 325 324 324 325 326 327 327 329 329 330 332 331 330 326 322 326 326 319 318 325 328 330 329 325 319 315 316 317 317 317 318 319 322 324 326 328 328 329
311 312 312 312 313 313 312 312 313 314 314 315 315 316 315 315 318 320 321 322 321 323 324 325 323 322 325 324 320 320 321 322 323 321 321 322 323 323 322 323 323 323 324 325 325 324 325 324 324 325 325 324 325 327 328 329 329 329 329 331 332 331 331 328 321 321 321 317 318 323 328 330 327 324 318 314 315 316 316 317 317 318 320 323 324 325 327 328
311 311 312 312 313 313 312 312 313 314 314 315 315 315 315 314 315 316 318 321 322 323 324 324 322 322 324 322 319 321 322 322 322 322 322 322 324 323 323 323 323 324 323 323 324 323 323 323 322 324 324 325 327 328 329 330 329 328 330 331 331 331 331 329 323 319 319 319 320 320 323 327 325 321 317 314 314 315 315 316 316 317 318 321 323 324 325 326
310 311 311 312 312 312 312 312 313 313 314 315 315 315 315 314 314 314 315 318 321 324 324 323 321 324 326 320 319 322 322 322 321 321 321 322 324 323 324 324 324 324 323 323 323 322 323 323 323 325 326 325 326 328 329 330 328 327 330 330 330 329 329 331 325 318 318 320 322 321 320 322 322 321 321 319 316 315 315 316 316 315 317 319 321 322 323 325
310 310 310 310 311 311 312 312 312 313 313 314 315 315 315 315 315 314 314 315 320 325 326 323 322 327 328 320 320 322 322 321 320 320 320 321 323 323 324 324 323 323 324 324 324 323 323 324 324 326 328 327 327 328 328 328 327 328 330 329 329 328 327 331 324 316 316 318 319 321 321 321 321 321 321 321 320 318 318 317 317 316 316 316 318 320 322 323
310 309 309 310 310 310 310 311 311 312 312 313 314 315 315 316 316 316 316 316 318 321 322 322 322 325 325 320 320 322 320 320 320 319 319 320 322 322 323 322 322 323 323 324 325 323 323 325 327 327 327 326 326 327 326 327 328 329 330 329 329 329 328 330 324 315 315 320 322 323 323 323 323 322 321 321 320 318 318 319 318 317 316 316 316 317 320 321
310 309 308 309 309 308 308 309 309 310 311 313 314 314 314 315 316 317 318 317 316 317 318 319 322 323 322 321 321 320 319 320 319 319 319 320 321 322 322 322 323 324 323 323 323 322 323 326 327 325 325 325 325 326 326 327 329 329 329 328 328 329 329 328 323 316 315 321 326 326 325 325 323 323 322 321 320 318 316 317 318 318 317 317 316 316 318 319
310 309 308 308 307 307 307 307 308 308 310 313 313 313 313 315 316 316 317 319 318 318 317 318 321 322 322 321 321 320 320 320 319 318 318 319 320 321 322 322 324 324 322 322 323 324 326 326 325 324 324 324 325 326 327 328 328 328 328 328 327 328 328 327 322 318 317 320 326 326 325 324 323 322 322 322 322 321 319 316 317 318 318 317 317 317 317 318
309 309 309 308 307 306 306 306 307 308 310 312 313 313 313 314 315 315 318 321 320 320 319 319 321 322 322 322 321 320 320 320 319 317 316 319 320 321 321 322 323 324 322 322 324 326 326 325 323 323 323 324 325 326 327 328 327 328 328 327 326 327 328 326 322 319 316 319 322 323 321 322 322 321 321 321 322 322 321 318 317 317 317 317 317 317 317 317
308 309 308 307 307 307 306 305 306 308 311 312 312 312 313 313 313 314 319 321 319 319 321 321 321 322 323 322 320 321 320 320 319 317 317 318 320 321 321 322 323 323 322 322 324 325 326 325 323 324 324 325 326 327 327 328 327 328 328 327 326 326 327 326 322 319 319 319 317 318 320 321 323 325 324 323 323 323 322 320 318 318 317 317 317 318 317 317
308 308 308 307 307 307 306 306 308 310 311 311 311 312 312 312 312 312 317 319 317 318 321 321 321 322 322 321 321 321 321 320 320 319 317 318 321 321 321 321 322 323 323 323 324 325 325 324 324 325 325 325 326 326 327 328 326 326 327 327 326 326 326 326 324 323 326 326 317 316 323 324 322 326 326 324 323 321 321 319 318 318 318 317 317 316 317 318
308 308 308 307 306 306 306 307 309 310 310 311 311 312 312 313 312 311 315 317 316 318 319 319 322 322 321 322 321 321 323 322 320 318 317 318 321 322 321 322 322 323 324 323 324 326 324 324 325 325 325 326 327 326 325 326 326 326 326 326 326 327 327 326 326 326 329 329 319 317 323 325 324 324 325 324 323 321 321 320 318 317 317 317 316 316 316 317
307 307 307 306 306 306 307 307 309 310 310 310 310 312 312 312 311 310 313 314 315 318 318 319 321 322 322 322 320 322 325 322 318 317 316 318 322 321 322 323 323 323 322 323 327 326 323 325 325 325 326 327 327 326 326 325 326 327 325 325 326 327 327 326 326 328 328 326 322 320 323 326 326 325 325 324 324 324 323 323 321 320 318 317 316 316 316 316
307 307 306 305 305 306 307 308 309 310 309 310 311 312 312 311 310 310 312 313 316 317 318 319 319 319 321 322 321 322 323 321 320 320 316 316 319 320 323 324 323 324 322 324 328 324 322 326 326 325 327 327 326 326 325 325 327 324 323 325 326 326 326 326 326 327 325 324 326 326 323 326 327 324 325 325 323 324 325 324 323 322 320 319 318 317 316 316
306 306 305 305 305 305 307 308 308 309 309 310 311 311 312 310 309 312 312 313 318 318 318 320 318 319 321 321 322 323 321 321 322 320 316 316 317 318 322 323 321 324 323 322 324 322 320 322 323 325 326 326 326 325 324 326 325 321 321 324 324 323 322 322 323 323 323 325 328 328 323 326 327 323 324 325 322 323 325 324 323 322 322 321 320 319 318 317
305 306 305 305 305 306 307 307 308 309 309 310 311 311 312 309 309 313 312 313 319 319 317 319 319 321 323 322 323 323 321 321 319 317 316 318 318 317 319 321 322 324 322 319 318 318 316 316 320 324 324 324 325 324 324 325 322 318 320 321 321 321 319 319 320 320 325 329 328 326 324 325 327 324 323 324 321 321 323 322 321 321 321 320 319 320 318 316
305 305 305 305 306 306 306 306 307 308 309 310 312 311 311 310 309 311 313 315 319 319 319 320 320 323 324 323 323 323 322 320 318 318 317 318 320 320 321 324 325 324 323 322 318 315 316 319 321 319 318 322 323 321 321 321 318 318 321 322 323 322 320 321 321 320 327 331 324 321 323 325 326 323 322 322 320 318 319 319 320 319 319 319 318 317 316 314
304 304 305 305 306 306 306 306 307 307 308 310 311 310 310 311 309 309 312 313 314 318 321 321 321 323 323 322 323 323 322 320 319 319 319 320 321 322 324 325 325 325 326 326 322 318 319 320 319 315 315 319 323 322 320 318 317 320 323 325 327 326 325 327 326 324 328 328 318 317 321 324 325 322 321 322 321 319 319 318 318 318 317 316 316 316 315 314
304 304 304 304 305 306 305 306 307 307 308 308 310 310 310 310 309 308 310 311 313 318 321 320 322 323 322 322 323 322 322 321 320 320 319 320 321 322 324 323 323 327 329 327 323 321 321 319 316 317 316 318 322 324 322 319 318 321 324 326 328 329 329 330 328 326 328 324 315 315 319 322 322 319 319 320 321 320 317 316 316 315 315 314 314 315 315 315
304 303 304 304 305 305 305 305 306 307 308 307 308 311 310 309 310 309 309 311 315 319 320 320 322 323 322 322 322 322 323 322 320 320 320 321 321 323 325 323 322 324 326 325 322 321 325 323 319 319 319 318 321 324 323 319 318 320 323 325 327 327 329 329 328 328 329 322 315 316 320 322 321 318 316 316 317 317 314 314 316 315 314 314 313 313 314 314
303 303 304 304 304 305 305 305 306 306 308 307 307 310 311 309 308 308 309 312 316 318 319 320 322 323 323 322 321 322 322 321 321 321 321 321 321 322 324 324 322 321 324 325 323 321 325 324 319 318 318 317 320 323 320 318 320 320 321 325 326 325 326 325 322 322 324 323 319 318 319 321 319 319 317 317 317 314 314 315 316 315 314 314 314 314 314 314
303 303 303 304 304 304 304 305 305 305 307 308 307 309 310 310 308 308 308 312 316 317 319 321 322 322 322 321 322 323 322 321 321 321 321 320 320 321 323 322 321 321 323 325 323 323 325 322 316 316 317 317 320 322 319 320 322 321 321 325 324 320 322 324 321 317 319 325 325 320 320 320 319 320 319 319 319 317 318 318 315 315 314 314 314 315 314 314
303 303 303 304 304 304 304 304 304 305 306 306 307 307 308 310 310 309 308 311 315 317 319 322 322 322 321 320 321 322 322 322 322 322 322 321 320 321 322 322 320 320 322 322 322 323 324 319 315 316 319 317 317 319 318 319 320 320 322 323 320 319 320 322 323 321 321 325 325 321 322 321 320 321 320 320 321 319 319 319 316 314 313 314 314 314 314 314
302 302 303 303 303 303 304 304 304 304 304 305 306 307 308 308 309 309 308 310 314 317 319 321 322 322 321 321 321 320 321 322 322 321 321 321 322 321 321 321 320 320 321 321 322 321 320 318 314 315 317 315 314 318 320 318 316 318 321 320 321 324 323 322 324 327 325 325 325 322 321 320 319 319 319 318 319 318 318 317 316 314 312 313 313 313 313 314
302 302 302 302 303 303 303 303 304 304 304 304 305 306 307 307 308 309 309 310 313 316 318 319 320 322 322 321 320 318 318 321 322 320 321 322 322 321 320 321 321 320 320 319 321 320 318 320 316 313 314 315 315 318 321 319 315 315 318 320 321 324 324 323 324 325 325 325 326 325 322 320 319 319 319 319 318 317 316 316 315 314 313 313 313 313 314 314
302 301 302 302 303 303 303 303 304 304 303 303 304 305 306 308 308 309 309 310 312 314 316 318 319 321 322 321 320 318 317 320 321 321 322 321 322 321 320 320 321 320 320 318 318 318 317 319 318 313 313 317 318 319 321 320 316 316 319 321 321 320 319 321 323 323 324 325 325 326 324 320 318 319 319 319 319 318 317 316 316 315 314 314 314 314 314 314
301 300 301 302 303 303 303 303 303 303 302 303 303 304 305 307 308 309 309 310 312 313 315 318 318 320 321 321 321 319 319 320 320 322 322 320 321 323 321 319 320 321 319 318 317 318 318 317 317 314 315 319 319 318 318 318 317 317 319 320 321 320 319 322 325 323 322 323 322 322 322 320 317 318 318 318 319 317 315 315 316 315 314 314 315 315 315 315
301 300 301 302 303 303 303 303 303 303 303 303 303 304 305 306 307 309 310 310 311 312 314 316 318 319 319 320 321 320 320 320 320 321 322 320 320 322 320 319 320 320 318 318 317 317 316 315 315 314 316 318 316 313 313 315 316 318 318 319 321 320 320 324 325 323 321 319 317 317 320 320 317 316 317 316 316 314 313 313 313 314 313 313 314 314 316 316
300 300 301 302 303 303 303 303 303 303 303 303 303 304 305 305 307 308 310 310 310 312 314 315 316 318 318 319 320 320 320 321 320 320 321 321 320 321 320 319 320 320 318 318 317 315 315 315 315 315 314 313 312 311 312 312 314 318 319 319 320 321 321 321 320 319 320 320 318 319 322 322 317 316 316 315 313 311 312 312 312 313 313 312 314 314 316 316
300 300 301 302 302 303 303 302 302 303 303 303 304 305 305 305 307 307 309 310 311 312 314 314 315 317 318 318 319 320 321 321 321 320 321 321 320 319 320 320 320 320 319 318 316 316 317 317 316 316 315 315 315 314 314 314 314 317 318 318 318 320 320 318 315 316 318 321 321 321 323 321 315 313 315 313 311 310 310 311 312 313 314 313 314 315 315 316
299 299 300 301 301 303 304 302 302 303 304 304 305 305 305 306 307 307 309 310 311 312 312 313 314 315 317 318 318 319 320 321 321 319 320 322 319 318 321 321 320 319 319 319 317 317 319 317 316 317 318 319 319 317 317 317 315 315 317 317 317 319 320 317 316 316 318 321 322 321 322 319 313 312 313 312 311 311 311 311 310 311 313 314 314 315 316 316
299 299 300 300 300 301 302 302 302 304 304 305 305 306 306 306 307 308 309 310 311 312 312 313 314 315 317 317 318 318 318 320 321 320 321 321 317 317 321 322 319 319 321 321 318 317 318 317 316 317 318 319 319 319 317 317 316 316 317 317 317 319 320 318 317 318 319 320 322 321 320 319 314 313 313 313 312 312 311 311 310 311 313 314 315 317 317 317
300 299 299 301 302 302 301 301 302 303 304 305 305 306 307 307 307 308 309 310 311 312 313 312 314 317 317 316 318 317 316 318 320 321 321 319 315 317 321 321 320 320 321 320 317 316 318 318 317 317 319 318 318 318 317 316 317 317 317 317 317 318 320 319 319 319 319 319 321 321 321 321 318 314 314 314 312 312 312 311 311 312 313 314 314 316 315 314
299 300 299 299 301 302 302 302 302 302 303 304 306 306 307 307 308 308 310 311 311 313 314 313 314 317 317 317 317 317 317 317 319 321 320 317 315 318 321 320 319 319 319 316 315 316 317 318 317 318 319 319 317 316 316 316 316 316 316 316 316 317 318 319 319 319 319 320 321 321 321 321 319 316 314 314 313 312 313 312 312 313 313 313 313 313 313 313
299 300 300 299 300 301 302 303 303 303 302 304 306 306 307 308 308 308 310 312 313 314 314 314 316 318 318 317 316 316 318 318 318 319 318 316 317 320 320 321 319 317 315 314 315 317 317 318 318 318 318 318 317 316 317 317 316 316 315 315 315 316 317 318 318 318 318 319 319 319 320 320 319 317 315 314 314 314 314 313 312 313 314 314 314 314 314 314
299 299 299 300 300 300 301 302 304 305 304 304 305 306 306 307 308 309 310 312 314 315 314 313 315 317 318 318 318 317 318 319 319 319 317 316 317 319 319 320 318 316 314 313 314 315 317 319 318 317 317 316 315 318 319 318 316 316 316 315 315 316 317 317 318 318 318 319 318 319 320 320 318 317 316 315 315 315 314 313 313 313 314 315 315 315 315 315
299 299 300 301 301 301 301 302 303 305 306 306 306 306 306 307 308 309 310 312 312 314 315 313 314 317 318 319 318 318 318 318 319 319 316 316 317 318 318 318 317 315 315 315 314 314 316 318 317 316 316 315 313 316 319 318 316 316 316 316 316 316 317 318 318 318 318 319 319 320 320 320 317 316 317 316 314 314 314 314 314 314 315 314 314 314 314 315
299 299 299 300 300 301 302 303 303 303 304 305 307 307 307 307 308 308 311 313 313 314 314 313 315 318 319 319 319 319 318 318 318 318 317 317 318 318 319 318 316 316 315 315 315 314 315 316 315 315 317 316 314 315 317 317 317 317 317 316 316 316 317 317 317 318 318 318 319 319 319 318 317 316 316 315 314 314 314 314 315 315 315 314 314 314 315 315
Wind_Speed
18 17 17 17 16 16 17 15 17 21 18 17 20 20 21 22 22 23 22 24 28 32 32 30 26 24 23 22 21 20 21 19 16 16 14 17 17 14 17 12 9 15 15 12 10 8 8 7 6 5 5 3 2 2 2 1 2 2 3 4 5 5 3 1 2 3 2 3 6 4 2 5 4 5 3 1 6 4 3 6 3 3 3 4 6 5 15 20
17 17 16 17 16 16 17 16 17 20 20 15 15 18 19 21 23 23 23 23 26 31 32 30 28 26 24 22 21 20 18 16 15 17 18 21 20 17 16 14 14 14 12 11 11 11 9 6 6 6 5 3 2 3 4 2 1 3 2 4 5 2 2 4 5 5 3 3 4 3 1 4 2 3 4 4 7 7 6 7 7 6 7 7 6 8 15 19
17 16 16 16 16 16 16 16 17 18 20 18 14 14 17 19 22 23 24 24 25 28 31 31 28 26 24 22 20 19 16 13 12 17 24 27 23 19 16 15 16 15 11 9 10 11 8 7 7 6 5 4 3 4 5 4 3 3 1 5 4 1 4 4 4 5 4 4 3 3 2 3 2 2 4 4 6 7 9 7 8 9 10 10 9 12 16 17
16 16 17 17 16 18 17 16 16 15 18 21 17 13 15 18 20 24 26 25 28 30 30 30 28 25 23 22 21 19 14 7 10 18 27 30 26 20 16 15 16 18 12 6 7 9 8 7 7 7 5 4 3 4 5 5 4 3 4 6 1 1 1 4 4 4 3 3 4 3 0 3 2 3 4 5 7 6 8 7 8 8 9 12 11 14 17 17
16 16 16 17 17 17 18 17 16 15 15 19 21 15 13 17 19 22 27 27 29 32 30 28 27 24 23 23 21 19 14 4 7 18 28 31 29 21 17 15 17 18 11 7 7 7 8 8 8 7 6 6 5 5 7 6 3 3 6 4 2 2 2 4 4 3 2 1 2 3 2 1 1 4 7 7 8 3 1 1 2 4 4 12 14 15 17 17
16 16 16 18 18 17 17 17 15 15 15 16 22 21 15 16 19 20 24 25 26 29 29 28 26 24 24 23 23 22 15 4 3 13 25 33 31 23 17 14 16 18 10 9 10 9 10 10 9 8 6 7 7 7 6 6 4 5 6 4 2 0 1 3 3 2 0 1 2 2 3 3 4 6 6 9 11 4 4 5 3 4 2 11 16 15 16 16
16 16 17 18 19 17 16 18 17 15 14 14 18 22 19 16 19 20 22 25 26 28 28 28 27 25 25 24 21 18 14 5 5 5 19 35 34 24 19 14 16 16 10 12 13 10 10 11 10 8 8 8 9 9 5 5 5 7 5 5 5 2 2 1 2 0 1 2 1 2 3 4 8 5 2 7 11 8 1 4 3 2 1 10 14 15 16 17
17 16 17 18 19 18 16 17 18 15 14 14 15 18 19 16 16 20 23 25 28 30 29 29 27 27 29 25 16 12 11 5 3 2 14 35 36 27 22 16 16 14 9 13 13 11 10 11 11 8 9 8 7 8 6 5 7 9 7 4 5 3 3 1 1 1 1 1 1 2 5 7 6 3 4 10 11 10 6 4 4 3 5 9 12 14 15 16
16 17 17 18 19 18 17 16 17 17 15 15 14 14 17 17 16 18 22 25 27 30 31 32 29 31 31 19 12 10 10 7 0 4 14 33 36 31 25 19 18 12 7 11 12 13 11 10 12 9 9 7 6 7 7 7 5 7 8 4 6 5 4 2 2 3 2 2 1 4 7 6 1 3 7 13 10 7 4 4 4 5 7 9 10 12 14 14
16 17 18 18 19 19 17 16 16 17 16 16 16 13 13 17 17 15 17 22 26 30 33 34 31 35 29 13 12 11 9 10 3 1 17 30 34 33 27 20 18 14 7 10 12 13 11 10 11 7 6 5 6 6 8 7 1 2 5 4 5 5 4 3 4 5 3 4 3 5 9 5 3 1 7 4 1 2 4 5 7 7 9 10 10 11 13 14
16 16 17 18 20 20 17 16 16 16 17 16 16 14 12 15 18 15 13 16 25 32 35 35 35 38 28 12 12 10 10 14 7 8 20 27 31 32 29 24 21 19 11 11 13 14 13 12 9 6 3 4 6 6 6 4 2 2 4 4 6 7 6 7 7 7 5 3 3 4 9 8 4 5 9 4 3 5 6 7 8 9 9 10 11 10 11 13
17 16 17 18 20 21 18 16 16 16 16 16 16 15 12 13 16 16 13 12 20 32 36 35 38 39 25 10 9 8 12 14 11 15 22 26 29 28 28 25 23 23 16 12 12 12 14 12 10 9 4 4 6 4 4 5 2 3 4 5 7 7 10 12 11 9 7 4 3 2 9 12 10 9 11 11 6 6 7 7 8 9 9 9 10 9 9 11
17 16 16 16 19 20 19 16 15 16 16 15 16 16 14 12 14 16 15 11 14 28 38 38 41 36 19 6 5 11 15 14 16 18 21 23 23 22 23 23 23 23 19 14 11 9 11 11 12 11 6 6 5 3 3 6 4 4 4 6 5 6 9 11 12 10 9 5 5 1 7 9 9 10 12 11 7 6 8 8 8 8 8 8 9 9 9 11
17 16 15 15 17 20 19 16 14 15 15 14 15 16 15 12 12 13 15 15 12 21 35 40 43 31 13 3 3 13 17 15 18 22 23 22 20 20 21 24 22 20 19 17 15 12 9 11 14 10 3 5 3 4 4 6 5 5 4 3 5 7 5 5 8 10 9 6 7 5 7 8 6 5 8 8 7 8 8 9 9 9 8 8 8 9 9 11
18 16 15 15 16 18 19 17 14 14 14 14 13 14 15 12 12 10 11 15 12 18 31 36 35 20 6 2 4 15 20 16 20 23 25 25 23 20 20 23 18 14 14 14 15 13 8 10 11 8 4 1 6 8 6 5 5 6 4 4 6 7 3 7 8 10 7 3 8 9 5 8 9 9 7 5 6 8 9 9 9 9 9 9 8 9 9 10
17 16 15 14 15 17 19 17 14 13 13 13 12 11 13 11 13 11 9 11 11 20 31 29 27 15 3 4 8 15 17 17 20 22 24 26 23 21 21 20 14 12 11 9 12 11 9 10 5 4 6 6 8 8 5 4 6 6 5 5 7 8 7 5 7 8 6 4 9 11 6 7 7 8 6 5 5 8 8 10 10 10 9 9 8 8 9 9
17 16 15 14 14 15 17 17 14 13 12 12 12 11 11 9 12 12 9 10 10 22 31 25 25 15 1 6 12 13 13 17 21 21 22 23 21 22 21 17 13 13 11 8 10 9 11 10 3 4 7 8 9 8 7 8 7 6 6 6 8 10 8 6 5 6 8 6 8 11 10 13 8 6 6 5 5 7 8 9 9 10 8 8 7 7 8 9
17 16 15 13 14 14 15 15 14 14 12 12 11 10 10 8 9 10 9 8 7 18 24 18 20 10 2 9 13 15 18 20 22 21 19 20 22 23 19 15 14 15 11 9 10 10 11 9 5 7 9 9 11 10 9 9 9 10 9 7 9 10 9 10 4 5 8 8 8 10 11 16 14 12 12 10 8 8 10 8 8 9 9 7 7 7 8 9
16 15 15 13 13 13 13 14 13 13 13 12 11 11 11 6 4 6 7 7 5 8 9 8 14 7 2 11 15 16 22 24 22 20 19 20 23 23 20 16 15 15 12 10 11 12 10 7 7 10 10 12 13 14 13 10 10 12 10 8 9 9 9 9 3 5 5 6 7 10 12 14 14 13 14 13 12 12 13 11 9 8 8 8 7 8 8 9
15 15 15 13 13 13 12 12 12 13 14 13 13 12 9 6 4 4 5 5 6 7 3 4 14 5 5 10 16 19 22 23 20 17 21 22 23 24 20 17 15 13 13 13 13 13 10 9 11 12 13 16 17 17 16 12 9 10 10 10 10 9 8 6 5 6 3 3 7 9 13 16 15 14 13 11 11 13 13 12 11 9 9 9 9 9 9 10
14 14 14 13 13 12 12 11 11 12 13 13 14 9 4 7 7 4 5 5 11 14 9 4 9 6 5 16 24 25 18 13 12 16 23 24 24 22 17 17 17 13 15 17 14 12 11 12 14 15 16 17 17 16 15 13 11 9 9 9 9 10 9 5 4 6 4 2 8 10 13 16 16 15 13 11 12 14 13 12 12 12 11 10 10 12 10 9
14 13 12 12 12 11 12 11 10 12 12 13 13 7 3 5 2 2 6 6 11 14 10 6 8 7 8 20 27 29 17 8 9 11 19 22 21 18 16 18 18 15 18 17 12 11 11 13 16 17 16 15 15 15 15 14 11 8 8 8 8 8 9 6 5 5 4 2 6 10 12 15 16 16 15 14 15 14 14 13 13 12 12 11 11 11 10 9
14 14 12 12 11 11 11 11 11 11 11 12 12 9 4 3 2 3 7 3 6 7 8 9 8 7 11 16 24 29 18 12 12 12 21 22 16 16 17 19 19 17 18 17 13 12 11 12 16 17 16 16 15 16 16 13 9 8 7 7 8 7 8 7 4 3 4 4 7 10 10 12 14 15 15 17 17 16 15 16 15 13 13 14 12 10 10 11
15 14 13 12 11 10 11 11 11 10 11 13 12 10 5 3 1 3 5 1 4 3 4 9 9 9 11 11 23 28 17 13 13 17 25 22 15 16 17 19 20 17 16 19 18 14 10 8 13 17 16 16 15 15 16 11 7 9 10 8 8 7 7 5 1 0 4 6 4 7 10 10 12 15 14 12 14 16 15 15 15 14 13 12 11 11 10 11
16 15 14 13 12 11 12 11 10 9 11 12 13 10 6 4 3 4 4 2 4 2 1 6 6 10 12 11 21 21 10 9 10 15 22 20 18 17 15 15 15 16 19 22 19 13 11 9 12 17 17 17 16 13 15 12 7 8 10 9 9 8 7 7 4 4 6 6 3 1 8 6 5 9 8 5 6 9 10 12 14 14 12 10 10 11 11 11
17 16 15 15 13 13 12 7 9 11 11 11 12 12 9 6 7 9 6 2 5 3 4 7 4 13 18 11 13 11 8 8 4 12 19 16 15 10 12 12 8 15 21 19 13 8 9 12 15 18 17 17 15 12 14 13 8 7 7 8 11 9 7 8 6 4 6 6 1 1 7 6 5 8 9 7 7 9 9 11 13 12 11 10 10 11 11 12
17 16 16 16 15 16 11 5 9 12 9 9 13 15 12 10 10 10 6 2 5 3 7 7 2 13 18 13 16 11 9 10 7 9 18 14 8 2 9 15 8 12 15 11 9 5 10 17 16 17 16 14 13 11 12 14 10 4 4 8 12 10 8 7 5 6 6 6 4 5 6 8 8 10 13 13 13 14 14 14 13 12 12 12 13 13 12 12
17 16 17 16 16 17 10 5 12 13 7 9 15 17 15 15 13 8 4 5 4 4 5 5 3 10 11 13 20 9 7 16 10 12 16 9 5 1 7 15 12 15 16 13 10 3 10 19 18 17 14 11 12 10 12 15 9 1 4 7 10 9 7 6 4 5 5 4 6 7 4 6 8 6 9 11 12 14 14 13 11 11 12 13 13 13 12 12
18 16 17 16 16 15 9 5 10 11 8 12 17 21 20 17 10 3 3 6 2 4 3 5 5 8 8 12 17 8 7 11 5 9 12 5 1 1 5 12 14 17 13 8 6 3 6 11 14 17 13 10 13 11 13 16 7 2 4 7 6 4 2 1 2 3 3 5 8 7 5 6 8 5 6 8 8 10 10 7 7 8 9 9 9 10 10 9
19 17 17 17 15 13 10 9 8 8 10 14 20 27 24 14 6 3 7 5 2 2 2 5 6 7 11 12 10 10 11 5 4 11 8 2 1 2 2 5 8 12 6 3 4 3 3 1 5 10 8 9 11 6 8 12 8 7 7 8 8 4 4 2 1 2 4 8 7 7 10 8 7 4 5 5 2 2 2 2 3 3 4 5 5 5 5 4
21 19 18 18 15 13 10 9 10 10 10 16 24 26 17 7 3 7 8 1 2 4 5 7 9 11 15 13 6 10 14 8 11 15 7 3 4 3 5 3 0 5 5 3 4 2 6 6 4 3 2 5 11 7 4 8 11 9 7 7 5 2 3 1 1 1 6 7 0 1 7 10 8 4 3 2 2 2 1 2 3 4 5 6 4 1 1 1
22 20 19 18 15 13 10 6 12 14 10 17 24 16 7 5 6 8 5 3 1 6 7 8 10 14 17 16 9 11 14 10 13 17 12 10 8 8 11 9 6 6 5 7 6 3 7 6 3 3 2 5 13 9 5 7 9 7 7 7 6 4 2 4 4 4 8 5 3 3 2 7 10 8 7 7 7 6 4 3 5 7 8 8 6 3 1 2
22 20 20 20 16 15 11 7 11 16 14 17 16 7 5 7 8 8 6 4 1 3 8 8 10 16 20 16 10 10 12 12 15 17 15 13 11 11 11 10 11 7 5 10 9 6 5 1 0 5 3 7 13 12 7 6 8 8 8 8 7 5 4 6 7 6 6 3 4 4 2 6 9 7 9 13 14 10 2 1 2 4 7 8 8 6 4 4
21 21 20 20 18 15 14 10 7 11 16 15 8 5 8 8 7 11 11 5 2 3 8 10 11 17 20 17 11 10 9 10 16 17 15 13 10 10 10 10 12 4 5 10 6 7 8 1 7 12 7 9 14 12 9 9 8 9 8 8 7 6 5 5 5 6 5 1 3 5 3 5 4 2 3 4 5 5 2 3 5 4 5 5 5 6 5 5
20 22 19 18 18 16 17 14 6 7 12 10 4 5 8 8 7 10 10 4 2 3 8 11 12 13 15 14 13 14 7 5 17 17 13 15 11 11 10 10 14 8 8 11 5 7 9 3 5 7 5 12 15 11 11 13 8 7 7 7 8 7 6 3 0 1 2 1 3 5 4 5 4 6 8 6 4 5 7 7 6 5 4 3 3 4 2 2
18 19 18 17 18 18 18 15 10 8 7 5 5 7 5 5 6 6 7 7 4 5 8 10 11 8 7 6 10 17 8 2 15 15 9 15 14 15 13 9 13 13 10 11 5 7 10 3 5 6 5 14 12 9 13 12 7 6 5 6 4 1 2 4 2 2 1 5 5 5 5 6 6 10 12 13 12 11 11 8 5 4 3 3 1 0 1 1
17 16 15 17 18 18 18 16 14 10 5 4 6 7 6 5 6 5 9 10 7 9 9 8 9 8 7 3 5 14 9 4 13 11 8 12 11 14 14 9 13 15 13 10 5 6 9 4 3 6 11 10 3 6 13 6 4 8 7 7 5 5 4 3 4 3 4 7 5 5 8 7 5 5 4 9 13 12 11 9 6 6 4 3 3 3 2 1
15 13 12 18 21 18 18 19 16 10 4 4 6 7 7 8 9 8 10 12 11 11 10 6 6 7 9 7 5 9 9 7 11 9 9 11 8 12 16 11 14 19 16 12 6 6 9 6 1 2 7 6 1 7 12 4 2 4 5 8 6 2 3 5 5 5 7 8 5 6 9 8 8 7 2 6 9 9 8 8 9 9 7 5 5 4 3 2
11 8 9 16 23 21 21 21 15 7 4 6 8 7 6 8 12 13 12 12 12 12 10 6 6 6 7 8 7 7 8 9 11 9 9 8 5 12 18 12 14 20 17 12 8 7 7 5 3 2 3 6 4 6 10 7 3 2 4 9 6 4 3 5 4 3 5 7 6 6 7 7 8 10 9 9 11 9 7 8 10 10 9 7 6 5 3 1
9 5 5 15 26 25 24 19 10 6 6 8 9 8 7 8 12 16 17 15 11 9 8 6 8 7 6 7 9 9 8 9 12 10 8 10 8 12 19 15 16 22 18 10 7 7 4 3 6 5 4 8 8 7 11 12 8 5 7 11 9 3 1 3 5 4 4 5 6 6 7 6 3 6 10 13 12 8 5 6 8 9 9 7 6 4 3 1
7 5 4 20 32 30 25 13 5 6 7 9 11 11 10 9 10 15 20 20 13 8 9 9 9 7 6 7 8 9 8 7 11 9 6 12 10 8 15 18 17 21 16 9 8 7 4 3 7 8 9 11 8 4 5 8 11 10 8 10 11 8 4 5 7 7 6 5 5 5 7 7 2 5 7 9 9 6 5 4 5 7 7 7 6 5 4 3
6 6 5 20 35 32 19 8 6 8 8 10 11 11 10 9 10 14 18 20 16 9 9 11 10 7 6 7 7 9 10 8 11 11 7 13 14 10 18 23 21 22 17 10 8 4 2 4 7 7 8 8 3 3 2 1 7 11 8 9 12 10 9 9 8 6 6 4 2 3 7 7 3 6 6 6 7 6 5 5 6 6 7 7 7 6 5 3
7 6 4 19 38 33 13 6 9 8 8 10 12 14 13 11 12 14 16 19 16 9 7 10 11 9 5 6 6 9 12 10 14 16 10 13 17 12 19 27 25 22 16 10 7 3 2 5 6 6 4 4 4 2 1 4 2 10 12 11 12 14 14 8 3 3 6 6 4 3 8 7 1 3 2 5 7 4 4 5 5 5 5 6 6 5 4 4
8 7 1 14 33 28 11 8 11 9 11 12 13 16 15 13 14 16 16 18 15 9 7 8 9 9 7 8 7 9 11 9 12 16 11 10 11 8 18 29 27 21 15 12 12 8 5 6 7 7 5 3 4 4 5 6 7 10 11 9 10 17 16 6 1 2 4 8 9 6 9 6 1 1 2 4 5 4 4 4 4 4 4 5 5 4 4 3
6 7 3 8 16 12 5 8 11 11 13 15 15 17 17 14 15 18 18 18 15 12 8 8 10 9 8 11 9 9 11 7 6 11 11 8 3 3 16 27 26 21 15 13 14 9 7 8 7 9 10 10 11 9 9 11 8 6 10 12 12 18 20 10 3 4 8 9 11 10 11 4 4 4 5 4 4 4 5 5 4 4 4 4 4 4 3 3
5 6 6 7 5 5 4 5 8 10 12 14 13 15 19 16 14 18 21 19 17 16 12 11 14 12 11 15 12 9 12 8 1 7 11 8 0 2 16 25 24 20 11 12 15 9 4 7 8 8 8 7 6 4 5 9 11 11 17 18 14 16 17 10 5 8 8 5 9 16 15 5 4 8 9 7 7 6 6 7 6 5 6 5 4 4 4 4
6 6 8 7 4 6 7 6 8 9 12 14 10 11 19 21 15 16 19 18 17 19 17 14 16 14 12 17 14 10 13 10 3 7 10 5 2 1 14 21 20 16 13 11 14 8 3 8 13 13 8 1 1 3 9 12 15 15 16 16 14 13 12 10 12 14 8 5 9 15 14 12 10 10 11 10 9 7 7 9 8 7 6 5 4 4 5 5
5 5 7 8 5 7 8 9 12 14 17 17 12 12 20 24 20 17 15 14 16 19 16 14 18 18 16 18 14 11 15 11 6 6 7 5 3 5 11 15 14 14 13 8 9 7 4 8 14 14 7 3 2 9 13 13 13 15 16 16 16 17 17 17 21 19 12 10 11 7 13 18 16 12 13 11 10 10 10 8 5 4 4 4 5 6 6 6
5 3 4 8 8 9 9 12 17 19 21 19 15 16 20 24 25 20 13 11 13 18 19 16 18 19 17 18 16 14 16 13 6 6 7 8 10 8 10 10 8 9 11 8 6 5 5 7 10 11 7 2 3 9 14 14 14 16 19 21 22 23 24 25 26 22 18 19 15 5 10 16 13 10 12 11 11 10 7 4 2 2 4 6 7 7 7 6
6 4 5 7 9 10 11 12 15 16 17 18 16 16 19 23 26 21 15 14 13 16 23 23 19 20 19 18 17 15 17 17 14 12 13 13 13 11 11 11 9 10 13 11 7 7 7 8 12 11 7 4 2 4 9 13 16 18 20 21 23 24 26 29 26 19 17 22 19 10 11 12 7 8 12 12 8 5 3 4 6 6 8 7 6 6 7 7
6 3 3 4 7 11 11 11 12 11 12 14 15 15 18 24 27 22 18 20 22 20 24 27 24 20 18 19 19 16 18 21 20 19 20 18 14 11 10 10 13 15 14 12 10 10 9 8 9 9 8 7 6 6 7 9 11 14 16 19 24 26 25 24 20 15 17 19 15 11 13 10 7 10 12 9 4 3 7 9 8 8 8 6 7 9 9 8
7 3 2 2 6 10 9 9 12 13 11 11 14 17 19 23 27 25 16 17 26 26 23 26 26 18 15 21 25 22 21 21 16 12 12 8 4 4 3 7 17 19 16 14 11 10 10 7 7 10 9 6 6 7 8 8 6 8 13 22 29 28 22 15 13 17 21 15 9 11 14 8 7 11 12 9 7 9 10 9 8 8 7 7 10 11 10 8
Wind_Direction
210 207 205 203 204 210 213 211 210 212 217 215 203 200 205 204 206 206 207 211 210 208 206 201 200 201 202 202 203 206 204 199 194 194 199 203 192 181 183 170 164 177 174 171 178 184 182 194 184 184 198 158 151 161 149 351 337 257 239 227 234 236 226 84 75 42 14 63 65 88 166 216 172 158 171 188 235 232 193 199 174 152 189 105 92 123 138 145
203 201 204 204 202 207 214 214 208 208 213 214 205 202 203 202 205 207 206 208 211 210 203 199 201 200 199 198 201 202 196 193 199 203 204 202 190 178 177 169 167 174 172 174 186 189 185 186 180 200 215 193 165 154 179 183 243 247 257 239 237 248 58 51 53 45 21 35 44 66 124 234 193 139 158 214 221 205 220 211 195 200 194 155 128 155 150 152
199 195 200 202 200 202 207 213 212 207 208 211 210 205 204 202 203 206 207 205 208 210 204 201 203 200 196 195 198 195 182 187 206 213 210 202 189 175 171 170 171 177 182 190 197 196 199 190 182 204 220 218 185 176 189 168 190 207 229 248 242 88 81 76 71 63 41 15 354 51 64 240 212 146 159 225 241 217 231 223 202 212 201 177 155 161 161 162
197 192 195 199 200 201 202 209 215 212 208 211 213 211 207 204 203 205 207 206 206 208 205 202 202 198 194 192 192 181 163 184 220 215 211 200 188 179 171 169 171 176 190 208 205 205 209 194 190 208 223 228 198 206 210 169 179 176 205 243 286 36 159 109 92 74 61 20 340 4 340 244 188 195 207 228 246 235 237 232 215 225 206 176 163 166 167 171
197 193 192 195 198 200 200 202 211 215 211 212 215 220 213 204 208 206 201 203 206 205 202 201 201 196 192 188 182 165 153 192 220 207 209 198 186 180 169 167 172 173 186 217 201 199 205 197 202 209 221 229 200 217 221 182 176 194 207 232 50 333 285 107 95 67 66 59 295 297 292 322 56 222 229 230 243 245 24 316 240 268 228 166 164 170 170 178
196 193 191 192 195 199 197 195 203 212 212 213 213 219 224 208 207 207 198 198 204 203 201 202 200 192 188 183 173 165 172 198 144 187 202 197 186 176 168 168 176 171 184 217 194 190 199 195 201 200 213 227 210 216 210 164 180 224 210 207 179 339 15 83 74 61 44 258 250 302 343 337 280 249 236 231 245 267 59 48 35 350 296 163 162 169 173 183
196 192 193 192 193 196 193 191 194 202 209 211 207 212 223 218 207 207 202 200 203 202 202 203 196 188 180 170 166 177 202 207 102 171 198 195 189 178 177 177 176 174 195 214 189 188 193 189 199 199 211 221 215 211 182 149 194 235 226 189 181 134 103 89 41 71 213 264 305 328 322 287 267 273 278 239 250 266 243 103 94 36 185 165 165 172 181 187
197 193 192 192 194 193 191 190 189 194 203 207 206 207 216 221 214 210 204 202 201 199 201 202 194 181 168 159 160 185 218 205 104 269 193 191 191 187 187 180 174 177 214 217 189 191 193 193 200 196 212 217 215 200 164 174 203 227 235 175 166 164 155 157 325 225 197 238 301 293 266 263 267 318 305 260 258 263 242 156 142 160 170 174 180 183 185 190
197 192 189 190 194 194 192 189 188 192 198 205 207 207 213 217 221 221 210 202 201 200 198 198 191 173 163 159 166 182 209 195 228 304 181 184 191 193 191 181 175 175 227 230 200 199 198 199 200 200 226 218 207 193 172 207 214 213 225 171 172 190 179 225 256 215 213 245 254 276 269 261 257 359 279 257 259 257 219 185 191 190 188 190 192 192 191 194
195 192 189 186 190 195 195 189 185 189 195 205 207 208 215 214 221 229 219 207 203 202 196 195 186 169 165 173 182 185 192 181 186 198 170 178 186 189 188 183 176 172 218 243 220 212 205 208 201 200 251 231 198 196 187 210 233 168 199 175 192 199 190 220 237 230 252 263 241 263 277 270 133 217 256 240 124 188 188 202 207 201 204 203 198 196 197 200
192 191 190 183 184 191 196 192 184 185 191 198 203 208 215 215 217 221 227 219 205 202 197 190 182 171 170 184 193 187 164 164 160 153 164 171 178 181 184 183 178 177 205 238 228 220 219 222 205 183 234 224 196 199 195 187 68 109 165 196 218 218 218 222 234 240 250 251 219 260 282 272 199 205 240 233 133 168 201 208 201 208 213 207 204 199 199 205
192 191 189 182 180 186 194 194 184 184 187 190 198 205 213 215 216 216 224 229 210 202 193 184 180 173 171 192 206 173 148 157 156 156 164 167 171 177 181 181 177 180 196 224 226 223 227 223 204 199 206 196 186 182 184 171 168 171 179 232 223 223 236 228 227 231 237 223 133 320 284 261 229 209 227 232 203 184 216 217 203 213 217 211 207 201 200 205
193 192 189 181 177 181 190 193 186 183 183 185 191 197 208 214 215 217 217 227 225 204 194 186 179 171 168 197 199 156 147 155 155 152 160 160 163 171 177 181 178 181 193 214 225 227 227 216 207 213 221 216 192 106 132 161 185 184 198 250 232 235 243 223 217 218 227 207 128 167 272 258 233 211 218 223 199 188 218 222 212 213 212 212 208 203 204 202
192 192 190 183 177 177 183 190 187 182 181 182 185 192 201 209 210 213 217 223 235 210 196 183 173 167 170 188 163 161 150 149 154 149 154 152 147 156 173 183 183 187 197 208 210 209 213 213 211 204 221 255 172 127 153 154 186 190 176 233 238 250 239 165 182 195 206 191 152 191 253 267 263 219 211 210 199 204 225 231 223 216 210 209 205 205 208 203
191 191 189 186 179 174 178 186 184 179 180 178 178 188 195 207 206 199 212 217 231 217 195 178 168 162 161 194 187 166 153 154 161 154 158 156 148 153 166 175 176 178 185 188 182 180 186 198 205 187 158 149 141 165 182 154 194 202 188 212 217 239 216 139 156 184 196 170 174 196 243 259 259 251 219 177 196 213 232 243 234 223 213 208 207 208 212 209
189 190 188 185 179 173 174 180 181 175 174 174 173 181 189 205 207 199 200 200 222 211 189 177 175 171 161 173 168 164 160 168 167 157 162 163 157 155 155 158 156 155 156 151 155 161 176 183 201 199 171 166 173 188 194 186 201 202 220 229 208 223 235 187 156 179 189 142 179 202 248 260 246 246 215 158 207 222 234 246 243 238 224 214 213 210 215 214
188 188 187 185 181 175 170 173 176 171 168 168 164 169 180 196 209 212 202 184 206 202 189 179 174 177 218 139 150 166 171 168 162 156 161 169 164 153 149 149 146 148 143 141 154 164 185 186 182 195 188 195 202 201 203 210 206 198 214 228 224 225 239 226 159 163 186 185 203 207 237 256 252 243 220 185 204 224 237 242 243 246 235 222 223 220 221 219
184 185 184 183 180 176 171 169 168 166 164 160 158 158 164 180 206 220 216 203 203 194 193 182 165 170 236 169 172 174 164 158 156 153 157 171 170 156 154 155 145 145 145 156 171 181 189 185 183 198 203 206 205 203 209 214 203 199 201 207 226 222 233 245 204 147 180 195 224 219 230 251 255 253 250 241 231 239 248 244 241 244 238 230 226 227 230 229
178 179 179 177 175 173 171 168 163 162 160 156 152 138 131 140 194 228 222 218 216 193 193 172 169 177 179 183 184 161 151 149 149 150 155 165 169 165 166 165 156 157 162 174 185 189 189 180 194 209 208 202 205 206 209 216 204 204 208 211 227 224 229 241 188 129 174 197 224 235 244 257 258 254 254 251 245 247 252 251 244 240 238 237 232 230 230 233
174 174 174 172 168 166 166 164 160 158 157 156 148 134 127 133 171 225 209 206 237 247 295 167 187 201 66 156 161 142 142 146 148 157 160 161 165 168 171 169 168 175 180 182 184 185 189 195 204 210 206 201 206 208 211 221 212 209 221 224 232 237 233 219 161 135 151 232 241 246 257 263 265 262 259 256 250 248 250 251 247 241 236 235 237 235 227 229
170 170 172 172 167 164 162 158 158 158 155 157 155 153 164 163 176 206 187 220 245 246 272 244 227 289 92 154 155 140 136 138 144 156 159 162 166 166 172 174 172 183 190 186 180 179 191 209 211 210 208 204 206 209 214 221 218 218 225 228 230 238 245 228 140 138 142 241 257 259 265 267 267 267 266 260 252 247 245 247 247 244 241 237 237 236 232 231
168 167 168 171 170 166 163 158 159 157 153 160 169 185 184 146 153 146 164 236 248 229 246 249 257 286 138 156 158 144 132 122 132 154 161 164 171 172 174 180 180 185 189 184 179 181 198 218 213 206 206 203 205 209 214 217 216 223 223 227 231 231 243 225 139 147 171 224 268 271 272 272 273 271 267 260 255 252 244 240 243 243 245 243 239 235 231 229
171 166 162 167 168 165 163 161 158 160 166 171 180 190 174 121 62 109 145 244 259 213 229 222 223 218 158 159 164 155 147 149 150 171 179 174 177 181 177 182 187 185 186 185 184 186 198 215 208 203 204 201 202 204 211 213 206 217 220 224 231 225 237 228 159 156 199 232 276 287 283 276 274 268 261 253 248 249 242 235 234 231 236 241 242 240 231 228
174 166 164 166 166 166 161 160 162 172 183 187 189 181 161 140 103 131 135 307 264 206 217 205 194 193 174 155 170 171 162 161 162 171 181 181 175 178 182 185 187 186 190 190 189 196 202 207 200 197 199 201 201 198 203 209 204 215 221 228 233 220 227 239 246 301 238 233 251 290 287 271 264 259 256 250 237 237 239 234 233 228 226 230 235 238 233 232
174 167 167 166 167 164 156 163 177 184 186 193 196 175 141 124 112 142 132 354 257 238 216 193 185 185 172 154 175 175 148 155 170 164 174 184 176 174 184 187 187 188 189 186 188 203 208 198 191 193 197 201 203 202 202 205 209 215 218 233 243 234 234 246 276 311 273 249 166 304 289 274 266 263 260 262 234 231 234 231 232 232 228 222 224 232 230 227
173 167 168 169 170 162 156 173 187 183 186 198 198 179 158 132 122 149 145 338 260 221 164 178 181 176 170 167 169 153 146 167 133 145 165 180 179 177 183 180 194 192 183 180 189 211 199 187 190 194 196 200 205 209 204 202 214 220 204 214 235 245 250 251 268 283 269 272 143 153 281 283 295 284 274 278 268 257 249 238 232 230 228 220 220 226 224 224
173 169 172 173 171 166 164 171 170 173 187 197 187 176 166 144 140 156 152 254 245 170 158 174 180 175 173 167 155 145 166 152 84 149 174 179 178 207 189 176 183 190 175 171 191 202 178 180 187 193 194 198 206 207 197 199 212 211 141 182 215 230 240 248 268 265 267 303 292 240 262 279 279 274 268 265 264 262 255 248 243 233 226 221 220 221 218 223
174 171 175 175 174 175 180 166 167 180 189 175 170 167 159 146 147 156 171 219 203 114 155 173 149 172 172 164 162 154 138 140 137 177 177 175 175 228 191 177 178 179 173 179 189 165 168 179 181 184 192 197 203 203 189 195 208 127 111 176 202 212 230 251 263 266 283 324 282 246 231 269 270 261 257 247 244 256 255 250 247 235 230 229 228 226 219 220
176 174 174 173 176 184 202 201 182 188 170 153 159 160 154 146 138 124 204 218 158 78 162 163 154 171 162 164 171 161 128 144 154 157 155 158 172 312 185 178 177 170 171 189 180 122 161 183 184 183 192 200 199 199 192 196 200 116 136 137 136 153 142 299 266 284 297 279 267 243 205 254 281 266 244 237 232 250 257 249 240 233 236 241 245 243 230 221
179 179 174 171 177 188 206 216 206 184 158 153 155 152 147 142 128 153 201 211 109 93 163 153 164 164 156 169 177 156 146 137 105 131 141 139 112 324 124 149 171 160 144 51 80 102 111 106 206 187 201 206 187 176 186 189 165 129 138 113 100 113 96 80 294 7 286 266 260 227 207 229 283 277 218 223 235 257 263 230 213 225 245 256 263 262 246 233
182 182 178 178 180 184 194 208 202 180 157 154 153 150 149 149 167 191 199 232 54 167 171 158 159 154 162 176 178 157 151 136 138 143 140 135 156 186 140 115 115 128 111 81 67 79 138 153 185 164 238 171 136 97 84 147 147 139 147 131 122 130 102 159 205 153 250 257 314 167 203 212 239 248 180 158 61 110 202 266 265 276 282 278 283 288 193 251
183 183 184 185 183 188 194 196 190 186 167 156 157 155 156 165 192 205 180 82 88 186 166 157 161 158 170 183 186 168 153 142 155 154 153 166 176 184 172 170 165 138 152 169 156 146 154 160 129 86 290 174 144 134 107 134 156 166 169 163 180 188 159 223 220 216 245 238 107 81 161 218 242 254 248 260 267 248 244 276 282 290 295 291 286 282 226 246
184 185 190 191 190 192 188 160 171 185 177 164 165 166 170 182 195 194 175 149 127 165 145 149 168 163 167 183 195 177 158 154 164 159 157 168 174 188 193 183 171 164 171 164 151 146 147 25 94 146 205 212 185 172 156 158 169 176 176 175 194 192 180 224 222 226 245 215 132 115 112 252 264 271 256 253 258 259 256 140 241 268 283 285 281 278 277 267
185 189 195 197 198 197 192 184 168 174 174 168 170 184 186 199 186 173 194 207 58 130 151 145 167 171 170 180 185 174 168 162 162 158 160 168 176 190 192 189 189 179 121 150 153 158 159 208 204 181 173 192 200 196 164 145 158 176 179 184 203 202 199 220 217 226 235 152 134 151 161 242 246 3 315 270 265 254 209 213 233 239 252 268 276 272 272 272
187 193 200 202 203 202 202 204 191 178 182 173 178 209 194 193 181 179 195 187 93 189 172 151 164 179 180 181 175 177 196 180 162 160 165 171 177 187 181 186 197 189 146 160 172 172 176 200 178 170 162 170 187 204 160 135 156 183 173 192 216 219 224 239 288 243 256 302 195 190 225 256 271 311 292 271 264 235 232 243 242 241 237 235 266 271 274 300
190 196 204 208 207 205 203 201 185 181 195 185 194 220 218 192 190 186 170 163 164 171 166 165 169 181 192 185 178 183 197 192 166 163 171 176 178 184 182 186 195 196 179 165 152 177 185 174 119 110 144 171 181 196 171 154 163 166 172 201 191 44 282 244 205 97 8 275 243 197 238 265 279 284 260 236 236 234 241 250 222 218 226 198 234 308 64 16
191 197 205 210 206 201 197 193 184 179 187 207 208 214 226 225 216 196 170 170 165 155 167 187 177 175 186 187 198 187 171 140 171 169 163 176 184 183 180 186 194 199 198 177 160 180 169 125 113 141 155 168 180 176 177 177 150 155 186 187 115 45 328 257 234 208 210 254 256 214 239 252 245 263 229 209 226 229 236 237 186 175 190 166 142 109 84 29
194 198 216 216 204 194 186 180 179 177 174 215 234 230 223 224 224 214 189 177 169 171 183 195 182 181 184 181 197 192 176 161 176 175 162 171 185 182 178 181 191 199 202 190 178 164 146 113 65 186 154 146 75 168 175 198 218 189 181 158 145 208 218 192 218 236 228 243 270 247 241 241 228 231 173 164 190 194 201 195 172 172 172 148 137 127 99 59
186 198 241 218 198 190 178 169 169 174 188 207 228 238 227 226 228 224 209 189 180 187 193 189 185 191 196 186 165 172 196 190 173 171 176 180 176 180 182 179 184 195 200 198 187 159 146 133 143 195 148 140 158 186 183 183 198 248 175 168 195 240 204 192 200 241 246 239 261 260 238 237 227 220 217 203 190 183 181 178 177 177 167 151 143 137 122 79
175 207 253 183 178 180 168 158 161 176 194 208 220 225 215 222 229 225 219 208 194 190 193 191 188 189 201 192 163 164 199 203 183 178 183 184 171 175 186 184 179 186 191 194 179 151 143 133 139 149 149 159 181 204 195 182 167 176 183 183 197 201 165 218 207 211 236 236 251 260 251 255 228 188 210 218 211 198 174 170 176 171 165 158 146 144 156 169
171 221 207 157 162 166 160 154 172 185 195 213 221 227 224 224 229 225 222 219 215 202 192 193 189 182 186 190 179 171 181 194 191 190 187 183 181 178 189 190 178 173 176 180 171 159 162 149 137 149 173 184 192 200 191 187 183 185 186 184 189 185 169 196 206 203 211 234 253 269 272 270 183 152 195 208 198 169 136 145 157 164 176 171 157 170 184 182
173 208 174 152 155 154 154 169 184 185 206 213 212 220 224 226 228 225 222 219 219 213 206 206 189 172 178 191 193 180 178 186 188 193 201 192 199 200 186 186 178 168 169 168 162 152 97 116 123 142 174 177 140 48 35 252 199 197 205 201 192 191 194 202 207 186 179 218 278 304 284 279 143 149 183 173 147 128 137 164 164 174 195 184 168 174 184 194
193 195 122 150 158 152 152 199 186 189 213 214 216 218 218 225 226 224 221 217 215 204 214 217 185 171 183 182 191 193 186 186 189 194 199 196 206 205 179 179 176 171 173 161 149 150 102 117 116 111 123 110 87 89 348 358 238 205 212 212 202 203 204 204 219 170 171 201 208 232 262 267 103 125 156 122 118 127 165 179 175 185 189 177 175 178 187 206
206 210 97 161 169 165 167 195 187 197 211 209 217 219 221 230 228 223 219 216 211 194 205 221 184 172 179 171 186 207 196 193 200 204 202 191 203 199 174 178 177 175 181 171 164 177 168 149 138 129 134 149 149 171 206 224 227 214 206 201 208 209 200 184 111 170 204 208 189 203 247 244 115 130 178 127 133 163 194 196 192 192 173 158 171 190 200 208
202 217 223 187 189 189 196 196 187 194 204 205 211 213 217 227 228 228 225 219 211 191 188 218 205 185 176 174 186 211 215 217 207 211 213 189 194 210 177 179 180 183 187 170 160 167 170 163 155 150 160 181 186 185 194 199 201 206 197 189 197 202 195 182 149 190 228 212 180 204 236 211 118 173 191 168 169 184 196 198 189 190 194 179 177 193 203 208
189 219 206 183 203 228 247 238 208 201 201 201 207 212 215 220 224 225 226 224 215 199 194 206 204 194 184 183 186 205 224 239 219 205 208 183 129 249 178 177 185 183 159 135 149 156 160 171 179 183 179 183 194 180 137 148 157 180 194 188 186 194 192 177 170 208 219 189 191 222 232 220 169 180 179 181 196 198 190 184 180 187 200 198 191 197 202 214
194 221 202 174 181 208 224 241 227 221 214 205 205 208 212 218 222 217 218 222 214 202 203 206 199 194 187 184 187 198 213 235 259 195 189 166 17 239 173 177 184 167 127 129 160 156 134 181 192 197 190 117 33 126 120 142 165 176 180 176 173 186 188 180 203 216 191 159 226 226 215 225 222 184 181 190 187 187 188 184 189 192 188 193 205 211 219 232
204 227 205 192 199 201 204 209 209 219 223 216 214 212 210 214 217 214 210 214 215 205 203 208 203 197 185 181 188 198 202 223 252 197 171 141 135 157 165 176 180 153 133 154 180 161 157 195 196 193 179 77 118 152 143 151 165 162 163 170 176 186 195 201 216 219 189 195 235 191 176 216 224 195 195 195 180 191 196 186 182 179 179 211 228 225 226 236
206 239 200 200 218 216 209 204 200 209 217 218 220 221 217 214 215 217 203 195 213 209 202 205 201 193 185 181 187 197 196 201 215 203 182 157 155 157 157 169 183 163 152 165 185 178 184 194 189 188 191 186 176 169 160 158 160 164 174 181 183 191 201 209 219 218 205 221 239 194 186 221 222 205 205 194 187 198 194 170 179 224 232 230 227 224 225 236
199 213 188 195 221 227 230 222 208 209 213 212 216 221 223 220 217 216 205 193 203 206 203 204 195 185 186 184 187 199 196 190 194 196 182 165 164 174 173 172 180 177 169 170 177 193 205 190 175 179 196 211 220 207 180 166 166 176 184 185 187 197 207 216 221 213 211 230 236 231 247 248 223 210 211 196 183 180 190 226 240 242 243 237 231 235 239 245
207 224 197 202 223 220 229 231 223 228 223 211 212 214 219 223 220 217 215 208 204 200 198 199 191 182 186 186 189 194 188 190 199 196 184 179 177 179 181 175 169 169 173 177 178 184 197 187 163 168 196 205 192 190 178 158 164 181 187 190 195 203 210 218 220 204 208 226 224 229 257 250 189 194 210 202 176 188 222 235 246 252 249 247 249 249 251 253
206 237 203 229 240 222 221 226 223 230 235 223 219 216 217 221 218 216 221 216 205 197 189 189 186 181 185 191 194 196 189 191 201 189 179 188 187 180 193 171 169 173 176 178 179 179 183 179 157 171 196 197 166 161 147 128 142 187 199 198 201 207 211 216 219 212 214 219 207 218 240 231 168 181 200 205 207 218 231 238 245 253 249 243 247 248 251 257